map of MPM home
MPM - Airport
Location
City:  Maputo, Maputo, Mozambique
Name:Maputo International Airport
ICAO:FQMA
IATA:MPM

Details
Type:Airport (Aerodrome, Airfield)
Use:Public/Civil, Military, International (customs port of entry)
Latitude:2555'15"S (-25.920835)
Longitude:3234'21"E (32.572606)
Datum:WGS 1984
Elevation:145 ft (44 m)
Variation:20.37W (WMM2015v2 magnetic declination)
-0.13 annual change
Runways:2
Longest:12008 × 148 ft (3660 × 45 m), paved

Time
Time Zone:UTC+2
Local Time:

Weather
METAR:FQMA 041300Z 26005KT 9999 TS SCT007 SCT015 FEW020CB BKN070 20/20 Q1018 RMK CB TO ALL/D TX 255 TM158
TAF:FQMA 041000Z 0412/0518 02008KT 9999 BKN015 FEW025CB TX36/0413Z TN24/0503Z PROB30
TEMPO 0416/0422 3000 +TSRA SCT015 FEW020CB
BECMG 0506/0508 23014KT BKN020
BECMG 0512/0514 17012KT

Related Locations
Nearby:
Farthest:ITO: 11793 mi / 18979 km
Hilo [Hilo Intl], Hawaii, HI, US

Find:

   beyond  
but within

Other Information
Maps:
NOTAMs:
Links:
Sources:

  
  • flag of Mozambique
  

Sectional Chart

Flight Planning
at skyvector.com

Satellite Image

Google Maps Satellite view

 

Copyright © 2004-2019 Karl L. Swartz. All rights reserved.
The Great Circle Mapper name and logo are trademarks of the Great Circle Mapper.
All other trademarks mentioned herein belong to their respective owners.
Please see credits for attibutions and further copyright information.

  Follow gcmap on Facebook Follow gcmap on Twitter GCmap on LinkedIn

hCard Microformat

Geo Microformat